Precipitable_Water
0.62 0.63 0.64 0.63 0.63 0.64 0.66 0.76 0.84 0.85 0.91 0.96 0.99 1.03 1.06 1.06 1.08 1.03 0.89 0.79 0.75 0.74 0.75 0.75 0.70 0.64 0.49 0.23 0.27 0.59 0.55 0.50 0.48 0.37 0.40 0.40 0.39 0.37 0.33 0.35 0.36 0.36 0.37 0.40 0.42 0.49 0.63
0.66 0.61 0.60 0.62 0.61 0.59 0.59 0.57 0.60 0.73 0.80 0.87 0.91 0.95 0.92 0.99 0.99 1.02 0.96 0.82 0.77 0.75 0.76 0.76 0.71 0.63 0.42 0.18 0.52 0.64 0.53 0.46 0.43 0.40 0.38 0.42 0.43 0.45 0.39 0.38 0.35 0.39 0.41 0.39 0.43 0.53 0.67
0.62 0.62 0.62 0.58 0.57 0.59 0.58 0.57 0.55 0.52 0.57 0.70 0.81 0.91 0.94 0.94 0.92 0.95 0.97 0.86 0.78 0.75 0.77 0.77 0.71 0.59 0.38 0.22 0.52 0.61 0.55 0.45 0.44 0.41 0.36 0.43 0.47 0.44 0.42 0.37 0.43 0.40 0.38 0.42 0.46 0.53 0.61
0.62 0.61 0.61 0.62 0.58 0.55 0.55 0.57 0.56 0.54 0.51 0.51 0.67 0.78 0.85 0.89 0.90 0.93 0.97 0.89 0.79 0.76 0.78 0.78 0.71 0.57 0.30 0.31 0.45 0.54 0.56 0.52 0.52 0.47 0.45 0.47 0.49 0.45 0.42 0.43 0.40 0.35 0.38 0.35 0.47 0.53 0.63
0.61 0.57 0.60 0.58 0.62 0.60 0.56 0.55 0.56 0.55 0.50 0.49 0.54 0.69 0.78 0.86 0.90 0.87 0.93 0.91 0.76 0.77 0.80 0.78 0.61 0.50 0.27 0.36 0.30 0.45 0.51 0.46 0.51 0.53 0.51 0.52 0.47 0.40 0.40 0.34 0.32 0.33 0.30 0.35 0.43 0.55 0.56
0.53 0.61 0.55 0.57 0.57 0.58 0.61 0.57 0.57 0.56 0.55 0.50 0.49 0.66 0.80 0.85 0.89 0.87 0.86 0.87 0.73 0.79 0.77 0.76 0.66 0.42 0.29 0.25 0.37 0.45 0.54 0.53 0.47 0.48 0.46 0.44 0.38 0.33 0.33 0.32 0.24 0.28 0.30 0.33 0.37 0.45 0.50
0.47 0.53 0.58 0.56 0.54 0.56 0.57 0.58 0.58 0.57 0.57 0.55 0.54 0.60 0.77 0.84 1.04 0.92 0.76 0.69 0.51 0.53 0.64 0.47 0.38 0.31 0.28 0.36 0.47 0.40 0.49 0.46 0.48 0.42 0.34 0.38 0.28 0.25 0.29 0.35 0.36 0.35 0.31 0.31 0.37 0.45 0.44
0.46 0.46 0.53 0.56 0.59 0.51 0.55 0.58 0.58 0.55 0.57 0.56 0.56 0.59 0.77 0.80 0.95 0.93 0.80 0.55 0.55 0.64 0.42 0.51 0.51 0.50 0.46 0.48 0.34 0.38 0.47 0.35 0.37 0.32 0.39 0.36 0.29 0.35 0.38 0.38 0.37 0.35 0.32 0.33 0.38 0.41 0.39
0.49 0.45 0.45 0.50 0.54 0.58 0.50 0.54 0.56 0.56 0.57 0.58 0.54 0.53 0.65 0.87 0.92 0.85 0.65 0.56 0.77 0.81 0.43 0.39 0.47 0.44 0.38 0.43 0.31 0.33 0.39 0.36 0.33 0.31 0.34 0.31 0.33 0.40 0.36 0.36 0.34 0.35 0.33 0.35 0.35 0.37 0.37
0.55 0.51 0.46 0.46 0.49 0.54 0.57 0.48 0.51 0.54 0.51 0.57 0.56 0.49 0.54 0.89 0.82 0.72 0.58 0.83 0.86 0.86 0.32 0.34 0.39 0.41 0.43 0.39 0.28 0.40 0.41 0.35 0.32 0.28 0.32 0.33 0.37 0.34 0.34 0.31 0.35 0.33 0.40 0.39 0.35 0.30 0.25
0.58 0.57 0.53 0.46 0.45 0.51 0.55 0.56 0.47 0.48 0.50 0.48 0.50 0.51 0.49 0.80 0.75 0.58 0.74 0.89 0.82 0.71 0.24 0.37 0.45 0.59 0.44 0.28 0.29 0.32 0.44 0.36 0.28 0.30 0.31 0.31 0.34 0.36 0.34 0.32 0.36 0.34 0.41 0.38 0.35 0.32 0.31
0.63 0.61 0.60 0.55 0.48 0.44 0.53 0.59 0.55 0.47 0.48 0.50 0.49 0.50 0.49 0.66 0.71 0.68 0.99 0.97 0.88 0.46 0.26 0.30 0.46 0.41 0.31 0.29 0.31 0.32 0.37 0.39 0.37 0.32 0.33 0.33 0.42 0.42 0.39 0.39 0.37 0.41 0.40 0.39 0.35 0.31 0.23
0.67 0.65 0.64 0.61 0.56 0.49 0.46 0.57 0.62 0.53 0.48 0.49 0.52 0.51 0.48 0.66 0.44 0.72 0.93 0.85 0.48 0.35 0.39 0.33 0.38 0.34 0.27 0.23 0.28 0.30 0.29 0.29 0.25 0.23 0.23 0.31 0.33 0.43 0.46 0.37 0.40 0.39 0.35 0.27 0.23 0.22 0.20
0.74 0.73 0.69 0.66 0.62 0.56 0.49 0.50 0.61 0.59 0.51 0.52 0.48 0.53 0.48 0.58 0.68 0.72 0.73 0.62 0.33 0.39 0.40 0.42 0.42 0.35 0.25 0.25 0.26 0.29 0.26 0.25 0.29 0.26 0.24 0.24 0.24 0.36 0.43 0.39 0.35 0.35 0.35 0.27 0.19 0.19 0.22
0.77 0.77 0.76 0.72 0.67 0.62 0.55 0.49 0.55 0.67 0.54 0.55 0.50 0.48 0.43 0.52 0.72 0.69 0.54 0.36 0.39 0.41 0.43 0.40 0.38 0.35 0.28 0.26 0.26 0.27 0.26 0.25 0.25 0.27 0.21 0.23 0.26 0.41 0.45 0.47 0.44 0.36 0.29 0.36 0.29 0.32 0.24
0.77 0.78 0.78 0.77 0.73 0.68 0.60 0.51 0.55 0.70 0.59 0.55 0.44 0.41 0.36 0.57 0.72 0.60 0.43 0.30 0.38 0.48 0.50 0.51 0.29 0.39 0.29 0.28 0.25 0.26 0.25 0.28 0.25 0.28 0.30 0.27 0.24 0.38 0.43 0.48 0.47 0.39 0.39 0.29 0.30 0.20 0.17
0.75 0.77 0.78 0.78 0.76 0.72 0.64 0.57 0.52 0.68 0.63 0.56 0.48 0.31 0.35 0.64 0.66 0.48 0.30 0.31 0.38 0.44 0.53 0.51 0.41 0.40 0.35 0.31 0.28 0.25 0.24 0.28 0.28 0.28 0.30 0.30 0.28 0.31 0.41 0.36 0.34 0.36 0.31 0.32 0.32 0.29 0.20
0.73 0.77 0.78 0.78 0.77 0.75 0.69 0.63 0.54 0.61 0.67 0.56 0.46 0.23 0.48 0.58 0.33 0.36 0.30 0.36 0.43 0.40 0.49 0.53 0.53 0.46 0.41 0.36 0.31 0.26 0.25 0.25 0.31 0.31 0.26 0.32 0.30 0.25 0.29 0.40 0.44 0.38 0.33 0.32 0.26 0.25 0.29
0.65 0.69 0.74 0.78 0.77 0.77 0.72 0.66 0.55 0.60 0.66 0.52 0.38 0.36 0.57 0.49 0.20 0.23 0.33 0.38 0.40 0.34 0.36 0.39 0.39 0.49 0.51 0.40 0.32 0.32 0.28 0.32 0.33 0.32 0.30 0.33 0.27 0.22 0.24 0.30 0.37 0.32 0.31 0.34 0.35 0.34 0.28
0.51 0.61 0.66 0.76 0.78 0.77 0.75 0.68 0.59 0.59 0.67 0.54 0.42 0.29 0.43 0.44 0.24 0.25 0.27 0.32 0.35 0.38 0.39 0.40 0.39 0.49 0.48 0.43 0.42 0.33 0.29 0.35 0.39 0.37 0.38 0.38 0.30 0.23 0.17 0.20 0.27 0.25 0.27 0.35 0.32 0.28 0.27
0.57 0.54 0.59 0.64 0.78 0.76 0.75 0.70 0.61 0.63 0.65 0.52 0.44 0.32 0.39 0.26 0.23 0.25 0.27 0.30 0.30 0.27 0.40 0.40 0.33 0.37 0.46 0.39 0.40 0.35 0.36 0.39 0.42 0.42 0.41 0.37 0.28 0.28 0.25 0.26 0.28 0.30 0.32 0.34 0.29 0.30 0.27
0.63 0.57 0.56 0.60 0.76 0.75 0.74 0.69 0.69 0.67 0.67 0.50 0.37 0.34 0.39 0.31 0.29 0.25 0.29 0.27 0.29 0.29 0.33 0.34 0.31 0.32 0.42 0.45 0.45 0.37 0.41 0.37 0.34 0.41 0.38 0.40 0.30 0.33 0.30 0.34 0.35 0.33 0.32 0.30 0.29 0.27 0.28
0.64 0.61 0.56 0.56 0.76 0.74 0.72 0.70 0.68 0.69 0.62 0.46 0.49 0.49 0.42 0.31 0.30 0.25 0.19 0.27 0.30 0.33 0.36 0.42 0.34 0.31 0.33 0.42 0.51 0.50 0.55 0.51 0.47 0.38 0.36 0.36 0.31 0.31 0.28 0.38 0.36 0.28 0.29 0.29 0.27 0.28 0.25
0.66 0.63 0.59 0.56 0.75 0.74 0.72 0.71 0.71 0.67 0.60 0.47 0.45 0.46 0.36 0.27 0.29 0.23 0.25 0.31 0.33 0.28 0.28 0.37 0.40 0.34 0.35 0.56 0.62 0.64 0.60 0.54 0.48 0.47 0.45 0.37 0.33 0.33 0.30 0.34 0.22 0.27 0.33 0.29 0.25 0.25 0.28
0.64 0.62 0.61 0.65 0.72 0.73 0.71 0.68 0.67 0.65 0.58 0.45 0.46 0.42 0.41 0.30 0.30 0.32 0.29 0.29 0.34 0.32 0.31 0.35 0.37 0.41 0.52 0.59 0.46 0.48 0.47 0.45 0.45 0.47 0.43 0.43 0.38 0.33 0.28 0.27 0.26 0.26 0.28 0.30 0.27 0.20 0.27
0.62 0.63 0.59 0.70 0.72 0.72 0.70 0.69 0.65 0.67 0.62 0.51 0.44 0.53 0.52 0.39 0.30 0.36 0.34 0.33 0.28 0.25 0.30 0.35 0.39 0.42 0.47 0.51 0.46 0.40 0.35 0.39 0.37 0.40 0.49 0.45 0.45 0.36 0.31 0.25 0.19 0.24 0.34 0.40 0.42 0.26 0.37
0.62 0.58 0.65 0.71 0.72 0.70 0.69 0.68 0.67 0.64 0.62 0.51 0.42 0.57 0.54 0.41 0.52 0.46 0.32 0.30 0.35 0.28 0.26 0.30 0.31 0.30 0.46 0.43 0.42 0.39 0.39 0.47 0.35 0.32 0.34 0.38 0.41 0.35 0.33 0.28 0.28 0.36 0.37 0.40 0.27 0.23 0.36
0.56 0.67 0.71 0.71 0.70 0.68 0.67 0.66 0.65 0.63 0.57 0.49 0.42 0.54 0.56 0.45 0.52 0.59 0.52 0.37 0.34 0.30 0.23 0.31 0.32 0.31 0.35 0.37 0.42 0.48 0.43 0.43 0.40 0.43 0.36 0.32 0.33 0.32 0.35 0.28 0.22 0.38 0.35 0.28 0.34 0.35 0.35
0.69 0.70 0.69 0.69 0.68 0.66 0.66 0.65 0.62 0.59 0.57 0.54 0.40 0.51 0.65 0.53 0.52 0.72 0.69 0.65 0.50 0.39 0.31 0.32 0.29 0.31 0.34 0.40 0.45 0.50 0.45 0.45 0.40 0.32 0.46 0.30 0.34 0.30 0.31 0.31 0.40 0.36 0.33 0.39 0.38 0.35 0.37
Wind_Speed
38 37 36 36 36 36 36 36 36 35 34 34 33 32 31 30 29 28 27 27 26 25 24 23 21 21 17 13 12 12 11 9 8 6 3 2 2 1 0 3 4 5 5 5 4 5 4
42 41 39 38 37 36 36 35 35 35 35 34 34 33 31 30 29 28 27 26 25 24 23 22 20 19 15 13 10 9 8 8 8 5 3 3 3 3 3 3 4 5 5 4 3 6 5
46 44 43 41 39 38 37 36 35 34 33 34 33 33 32 30 29 28 27 26 25 24 23 21 19 17 14 14 9 8 7 8 7 6 4 4 4 3 4 3 3 5 4 3 4 5 4
48 47 46 44 43 41 39 37 36 35 33 32 32 31 31 30 29 28 27 27 26 25 23 20 18 16 15 11 10 9 7 8 7 6 4 5 4 5 5 4 3 4 4 2 4 7 3
51 50 50 48 46 45 43 40 39 37 34 32 30 29 29 29 29 28 28 27 27 25 22 20 17 15 15 12 10 9 8 6 6 5 6 5 4 5 4 4 3 4 6 3 5 7 3
56 53 53 52 50 48 46 44 42 40 38 36 33 32 31 29 27 27 27 27 25 22 20 19 18 15 15 11 9 8 7 6 5 5 4 4 4 5 6 4 5 6 6 5 6 8 5
61 59 56 56 55 52 50 48 45 43 41 38 35 33 31 30 30 28 26 24 22 21 20 20 16 15 13 12 11 10 7 5 4 3 2 2 2 6 8 8 6 5 6 5 4 8 8
63 63 61 59 58 56 54 51 48 46 43 40 37 35 33 30 28 27 25 23 21 21 22 22 23 22 20 14 12 11 9 6 4 3 2 2 4 7 7 7 7 7 7 5 4 3 8
64 64 65 65 62 59 58 55 52 49 46 43 39 36 34 32 28 26 25 23 21 22 21 22 21 20 19 17 15 14 12 9 6 5 5 4 5 4 8 8 7 7 6 3 5 3 6
65 65 65 66 67 63 61 59 55 52 48 44 41 37 34 31 28 26 24 23 22 20 19 20 18 19 19 17 16 17 15 10 8 9 6 7 6 8 9 9 10 8 6 4 5 5 6
64 64 65 64 66 67 64 61 58 54 50 47 43 38 35 33 27 24 20 17 17 17 16 16 18 17 18 19 13 18 15 12 11 9 6 7 7 8 8 12 11 11 5 4 4 5 4
63 63 63 64 63 65 65 62 60 56 52 48 44 40 36 34 32 28 24 21 18 16 19 14 15 18 18 19 14 15 16 13 12 11 11 12 9 8 11 12 13 9 6 4 5 5 5
62 61 61 60 62 63 65 64 61 58 55 51 46 42 39 34 31 31 27 23 22 22 16 17 15 17 18 19 19 14 16 15 13 9 11 11 11 9 8 10 9 8 6 6 6 6 8
60 59 59 57 56 60 61 66 62 60 56 53 50 45 42 39 34 29 26 25 27 23 29 12 17 16 19 17 21 16 13 15 16 11 10 11 10 11 9 12 12 11 10 8 7 7 8
60 58 57 56 54 52 56 61 64 61 57 54 50 47 44 41 37 33 29 30 27 24 19 24 14 18 19 19 17 18 16 15 17 16 13 10 12 10 11 10 11 12 9 9 5 7 7
60 58 57 56 55 50 51 54 62 60 58 55 51 48 47 44 40 35 32 35 31 24 18 19 22 20 21 19 18 19 17 16 17 17 15 15 10 12 12 12 11 12 12 7 7 7 10
60 60 58 56 55 53 47 52 57 59 58 55 51 46 46 47 42 38 39 36 37 28 21 20 20 19 20 19 19 17 18 13 18 15 14 14 14 14 12 15 15 12 11 9 9 9 10
58 60 59 57 56 54 50 47 56 60 57 55 49 47 47 50 43 42 43 35 36 33 27 25 19 21 19 19 18 18 17 19 16 15 15 16 13 16 17 13 13 14 14 12 11 13 12
57 58 58 58 57 55 52 47 53 62 61 55 47 45 48 51 45 45 40 41 33 35 32 27 26 22 18 17 18 18 18 17 17 13 13 15 15 14 15 16 15 17 16 13 12 12 14
54 57 57 56 57 55 54 49 49 61 63 57 47 45 45 51 51 47 45 38 41 34 32 29 26 25 20 18 18 17 18 16 18 17 13 12 14 17 20 18 16 16 17 15 13 12 14
52 55 58 57 58 56 54 51 49 59 63 59 50 47 47 49 54 47 46 40 40 37 37 33 27 30 22 19 17 17 16 16 15 15 14 14 15 16 17 16 17 17 16 16 18 18 15
52 52 55 58 59 56 54 51 49 58 64 55 51 47 48 43 50 50 44 47 43 42 33 34 33 28 28 23 18 14 14 17 17 17 16 15 13 13 14 15 14 16 17 16 16 16 18
50 51 52 56 61 57 55 53 54 54 60 54 52 49 45 48 49 50 54 44 43 38 40 32 34 31 27 30 25 22 19 19 16 18 18 17 14 13 15 13 13 16 18 18 19 19 18
48 50 50 56 61 57 57 53 54 52 58 50 53 50 44 43 47 51 48 46 44 42 34 40 32 26 28 26 21 18 17 17 17 16 17 17 15 14 15 13 15 17 16 17 21 21 22
45 47 49 55 60 57 57 55 54 52 53 49 52 52 41 42 46 44 46 46 41 40 38 35 33 31 23 21 22 20 19 17 18 16 17 18 16 14 14 16 17 16 15 16 16 19 17
45 46 48 55 56 55 55 53 54 53 52 50 48 54 40 35 44 44 44 42 42 41 35 37 35 29 26 25 23 23 21 21 20 17 15 15 15 16 13 14 17 18 18 17 14 18 16
40 42 49 55 54 53 51 49 49 49 51 49 53 55 44 34 32 41 43 43 39 37 34 33 35 31 30 28 25 24 23 20 20 20 18 16 16 17 16 17 19 20 16 13 13 17 15
36 45 50 51 49 48 46 45 45 45 46 49 55 56 43 36 35 31 37 40 39 40 34 30 30 34 31 31 27 24 22 24 20 20 21 20 18 18 16 15 20 16 13 16 18 15 14
43 44 45 45 45 43 43 42 42 41 44 46 47 56 47 34 35 30 35 36 38 37 38 32 30 31 33 30 29 25 22 20 20 21 20 20 21 20 20 19 18 16 15 16 14 13 13
Wind_Direction
264 265 265 264 264 263 264 263 263 263 264 264 265 267 270 273 278 280 283 286 289 292 296 300 304 310 310 307 302 321 336 343 339 325 309 314 335 10 229 196 205 215 219 220 239 190 183
263 263 263 263 263 263 263 263 263 262 262 263 265 265 267 270 273 278 281 284 286 288 292 295 299 304 302 295 299 312 326 339 340 337 291 270 281 261 238 227 204 212 231 228 184 168 160
262 262 261 261 261 261 261 261 261 262 262 262 263 264 265 267 271 274 278 282 285 284 287 289 292 296 292 279 286 297 312 328 332 326 308 259 267 266 261 243 231 217 199 169 185 181 182
260 260 259 259 259 259 259 259 259 260 261 262 261 262 264 265 267 271 274 278 280 281 281 282 285 287 281 279 271 274 290 314 322 309 298 270 258 257 231 242 242 198 194 184 177 181 173
261 259 258 257 257 257 256 256 257 257 258 258 259 260 263 265 265 268 272 276 276 277 273 273 276 279 275 275 262 261 268 296 322 308 290 267 258 243 235 208 213 195 189 193 187 204 196
260 260 257 256 255 255 255 254 254 255 256 256 258 259 260 263 264 267 271 273 272 269 267 265 266 273 264 261 255 254 261 267 306 325 314 256 253 240 212 195 205 215 206 206 220 215 201
259 258 257 254 254 253 253 252 252 252 253 254 255 257 258 260 262 265 268 269 266 263 259 253 253 257 262 260 250 243 242 247 282 323 311 311 224 213 207 200 202 205 206 201 239 234 208
258 256 254 254 252 251 250 250 250 250 251 252 252 254 256 257 259 260 262 260 259 260 263 253 252 254 252 248 247 238 221 232 239 247 276 336 229 208 194 196 197 200 196 217 232 271 205
258 256 254 251 251 250 248 247 247 247 247 248 250 252 252 252 254 256 255 255 256 259 258 254 248 245 240 230 233 232 217 225 231 229 243 226 232 210 203 199 200 204 188 209 265 221 207
258 256 253 250 248 247 246 244 244 243 243 244 246 247 248 247 248 250 252 249 258 248 255 246 247 244 228 222 234 222 219 220 232 231 225 251 241 229 230 217 205 194 205 257 255 197 210
257 255 253 251 248 245 244 242 241 240 240 241 242 242 242 239 241 242 242 250 241 246 252 241 236 232 218 213 223 220 218 224 221 224 219 243 242 232 229 223 206 220 233 248 238 213 211
257 255 253 251 248 245 241 240 239 238 237 237 237 237 236 236 236 237 238 245 237 243 243 248 225 217 210 216 221 212 216 221 229 231 242 242 245 247 243 222 217 210 235 247 232 238 249
256 254 252 250 247 244 240 237 236 234 233 233 232 232 230 230 231 232 234 235 234 233 242 237 225 214 211 210 213 213 212 215 221 228 237 241 240 246 226 194 206 209 225 248 249 250 240
254 251 249 248 246 243 239 233 233 231 229 229 228 228 227 226 225 226 224 226 233 237 228 242 225 212 210 207 215 213 213 219 228 230 231 221 244 225 222 213 216 218 207 214 237 241 261
251 249 246 243 242 241 237 233 228 227 225 224 225 225 224 223 221 221 220 227 230 229 232 224 231 213 214 215 212 215 219 224 223 222 220 221 236 229 217 208 204 217 219 226 228 272 275
248 246 243 240 237 237 235 230 223 222 221 220 220 221 221 217 215 217 222 226 226 226 230 223 219 217 208 214 211 214 217 227 225 221 225 227 232 224 224 219 222 225 210 232 259 252 265
246 242 239 236 233 232 232 227 220 217 215 214 215 218 218 211 210 217 222 222 224 226 223 220 217 222 216 212 213 218 222 234 220 222 225 222 223 231 228 225 222 224 231 244 248 255 257
244 239 235 232 229 226 226 225 217 212 209 208 211 216 210 205 210 218 221 218 222 222 220 218 219 219 217 215 216 218 219 219 216 217 219 224 223 227 227 229 233 231 235 238 246 259 266
240 234 230 227 224 222 221 221 216 210 206 205 210 211 207 204 211 217 219 220 221 218 216 216 218 217 217 221 221 219 221 223 214 218 217 224 234 235 247 242 242 240 247 249 253 262 250
236 230 226 223 219 217 216 217 215 207 203 203 206 205 205 208 213 214 214 216 216 217 218 215 219 220 220 225 226 225 220 222 220 227 228 227 231 226 233 237 239 243 243 243 246 254 261
232 226 222 219 215 213 212 212 210 203 201 201 205 208 207 206 210 213 213 215 214 215 215 213 218 216 215 220 224 220 222 222 228 226 229 225 234 232 236 236 241 241 242 242 249 254 251
225 221 217 214 210 208 207 206 203 198 198 203 205 205 207 211 209 211 212 214 211 212 210 213 215 215 217 218 216 216 226 225 226 229 226 233 237 233 237 237 239 247 250 248 254 256 261
218 214 212 210 204 203 201 200 198 196 197 203 204 205 207 208 205 209 214 213 213 211 215 213 216 220 221 222 231 238 233 232 234 227 223 225 228 232 239 242 249 262 249 253 260 258 255
210 208 207 203 198 198 196 194 193 199 199 201 202 202 206 208 206 212 212 213 213 213 214 217 217 216 222 221 224 231 233 230 230 234 231 225 227 235 237 244 251 256 263 265 262 263 260
201 200 197 195 192 193 193 194 196 198 198 202 202 201 205 209 208 211 211 212 215 215 217 219 216 221 218 219 223 226 233 230 230 236 237 231 224 232 234 241 264 265 263 266 261 266 260
191 190 190 186 186 189 190 193 197 201 202 202 200 199 202 207 210 208 209 210 211 214 216 218 219 220 219 217 218 218 224 224 228 227 230 225 225 229 240 243 252 268 271 267 266 269 260
174 179 180 179 182 185 188 192 195 199 201 204 201 197 200 205 203 207 208 210 209 210 216 214 214 216 215 217 219 221 228 227 224 218 223 227 232 231 245 253 268 269 275 257 254 271 254
167 168 169 173 177 181 186 190 192 196 198 197 198 196 199 205 206 212 209 208 208 210 211 211 209 216 215 215 217 219 225 227 226 228 226 225 227 238 247 258 269 264 265 251 264 273 246
155 160 164 169 174 179 181 184 187 188 190 191 193 194 199 206 204 207 208 212 212 213 213 215 215 213 214 214 219 218 226 226 230 236 234 236 233 239 240 252 263 263 265 257 257 249 233